Regional Weather Roundup
Issued by NWS

Home | Current Version | Previous Version | Graphics & Text | Print | Product List | Glossary On
Versions: 1 2 3 4 5 6 7 8 9 10 11 12 13 14 15 16 17 18 19 20 21 22 23 24 25 26 27 28 29 30 31 32 33 34 35 36 37 38 39 40 41 42 43 44 45 46 47 48 49 50
357
ASUS43 KIND 300209
RWRIN

WEATHER ROUNDUP FOR INDIANA
NATIONAL WEATHER SERVICE INDIANAPOLIS IN
1000 PM EDT SAT APR 29 2017

NOTE: "FAIR" INDICATES FEW OR NO CLOUDS BELOW 12,000 FEET WITH NO
SIGNIFICANT WEATHER AND/OR OBSTRUCTIONS TO VISIBILITY.

* - STATION DOES NOT REPORT WEATHER SUCH AS PRECIPITATION OR FOG.

+ - STATION NOT QUALITY CONTROLLED BY THE NATIONAL WEATHER SERVICE.
    USE DATA WITH CAUTION...ESPECIALLY DEWPOINT AND RELATIVE
    HUMIDITY OBSERVATIONS.

INZ001>003-010>013-019-020-300300-
NORTHWEST INDIANA

CITY           SKY/WX    TMP DP  RH WIND       PRES   REMARKS
GARY /AIRPORT/ CLOUDY    46  45  93 NE22G44   29.97F
KNOX *+        CLOUDY    50  32  50 E18G31    29.96F
LA PORTE +     CLOUDY    49  46  87 E22       29.99F
MICHIGAN CITY+ LGT RAIN  46  46 100 NE15G23   29.99F
MONTICELLO +   DRIZZLE   50  48  95 W17G36    30.01R
RENSSELAER +   TSTM      50  46  87 E30G38    29.91F
VALPARAISO     TSTM      50  47  89 E23G31    29.95F

$$

LMZ046-743>745-300300-
SOUTHERN LAKE MICHIGAN

STATION/POSITION TIME  TEMP    WIND        PRES    WAVE
                       AIR SEA DIR/SP/G            HT
                 (UTC) (F)     (DEG/KT/KT) (MB)    (FT)
MICHIGAN CITY    0140   46      30/ 26/ 31   N/A
5NW MICH CITY    0200   46 47                N/A     9

$$

INZ004-005-014>016-021>024-300300-
NORTH CENTRAL INDIANA

CITY           SKY/WX    TMP DP  RH WIND       PRES   REMARKS
GOSHEN         CLOUDY    49  40  71 E16G24    30.05F
LOGANSPORT +   CLOUDY    46  46 100 E23G29    29.94F
PERU/GRISSOM   CLOUDY    48  48 100 E26       29.94F
ROCHESTER +    CLOUDY    50  46  87 E18G28    29.99F
SOUTH BEND     LGT RAIN  49  43  80 E15G24    30.03F
WARSAW +       CLOUDY    46  41  81 E22G33    30.03F

$$

INZ006>009-017-018-025>027-300300-
NORTHEAST INDIANA

CITY           SKY/WX    TMP DP  RH WIND       PRES   REMARKS
ANGOLA *+      CLOUDY    46  37  71 E12       30.11R
AUBURN +       CLOUDY    45  36  70 E20G25    30.09F
FORT WAYNE     CLOUDY    47  41  80 E28G35    30.05F
HUNTINGTON +   CLOUDY   N/A N/A N/A E15G25    30.03F
KENDALLVILLE + CLOUDY    46  38  72 E22G29    30.08F

$$

INZ028-029-035-036-043>045-051>053-300300-
WEST CENTRAL INDIANA

CITY           SKY/WX    TMP DP  RH WIND       PRES   REMARKS
CRAWFORDSVL +  TSTM      55  55 100 E9        29.96R
GREENCASTLE +  LGT RAIN  63  61  94 N15       29.94R
LAFAYETTE      TSTM      51  51 100 E12       29.95R FOG
TERRE HAUTE    TSTM      64  61  90 SW5       29.94R FOG

$$

INZ030>032-037>040-046>048-054>057-064-065-300300-
CENTRAL INDIANA

CITY           SKY/WX    TMP DP  RH WIND       PRES   REMARKS
CP ATTERBURY + CLOUDY    72  64  78 E3        29.91S
COLUMBUS       CLOUDY    73  64  73 E12       29.90F
FISHERS *+     CLOUDY    54  54 100 E7G21     29.93F
FRANKFORT +    CLOUDY    53  52  95 E25G31    29.92F FOG
GREENWOOD *+   CLOUDY    62  59  88 E13G22    29.91F
INDIANAPOLIS   CLOUDY    59  57  93 NE14      29.90F THUNDER
-EAGLE CREEK   LGT RAIN  57  54  89 E12       29.91F FOG
KOKOMO +       CLOUDY    48  47  96 E22G35    29.95F FOG
MT COMFORT *+  CLOUDY    55  55 100 E15       29.94F
SHELBYVILLE    CLOUDY    64  59  83 NE16G22   29.92S
ZIONSVILLE +   FOG       52  51  99 E17G24    29.94F VSB 1

$$

INZ033-034-041-042-049-050-058-059-300300-
EAST CENTRAL INDIANA

CITY           SKY/WX    TMP DP  RH WIND       PRES   REMARKS
MUNCIE         CLOUDY    52  50  93 E18G26    30.00F FOG
RICHMOND +     CLOUDY    54  54 100 E16G23    29.99F FOG

$$

INZ060-061-067>069-081>083-085>088-300300-
SOUTHWEST INDIANA

CITY           SKY/WX    TMP DP  RH WIND       PRES   REMARKS
EVANSVILLE       N/A     79  66  64 SW7       29.88R
WASHINGTON +   CLOUDY    73  67  82 SE6       29.87R

$$

INZ062-063-066-070>080-084-089>092-300300-
SOUTH CENTRAL AND SOUTHEAST INDIANA

CITY           SKY/WX    TMP DP  RH WIND       PRES   REMARKS
BEDFORD +      PTCLDY    73  66  78 SE5       29.89R
BLOOMINGTON    CLOUDY    73  65  75 SE9       29.88S
MADISON *+     CLOUDY    75  66  73 E7        29.95R
NORTH VERNON + CLOUDY    73  64  73 E6        29.92F
SEYMOUR +      MOCLDY    77  66  69 SE10      29.90

$$





USA.gov is the U.S. government's official web portal to all federal, state and local government web resources and services.